This is the latest recevied weather packets stored in our database for station/object KE2HEH. If no packets are shown the sender has not sent any weather packets the latest 10 day(s).
| Time | Temp. | Humidity | Pressure | Rain* | Wind** | Luminosity | Snow |
|---|---|---|---|---|---|---|---|
| 1778184517 | 13.33° C | 75% | 1008.8 hPa | 0 mm | - | 399 W/m² | - |
| 1778184213 | 13.89° C | 76% | 1008.6 hPa | 0 mm | - | 412 W/m² | - |
| 1778183909 | 13.89° C | 74% | 1008.4 hPa | 0 mm | - | 416 W/m² | - |
| 1778183607 | 13.89° C | 72% | 1008.5 hPa | 0 mm | - | 422 W/m² | - |
| 1778183304 | 14.44° C | 72% | 1008.5 hPa | 0 mm | - | 441 W/m² | - |
| 1778183000 | 13.89° C | 74% | 1008.6 hPa | 0 mm | - | 443 W/m² | - |
| 1778182697 | 13.89° C | 72% | 1008.6 hPa | 0 mm | - | 451 W/m² | - |
| 1778182394 | 13.89° C | 73% | 1008.7 hPa | 0 mm | - | 459 W/m² | - |
| 1778182089 | 13.89° C | 75% | 1008.8 hPa | 0 mm | - | 460 W/m² | - |
| 1778181786 | 13.89° C | 74% | 1008.7 hPa | 0 mm | - | 478 W/m² | - |
| 1778181483 | 14.44° C | 70% | 1008.8 hPa | 0 mm | - | 484 W/m² | - |
| 1778181179 | 14.44° C | 72% | 1009.1 hPa | 0 mm | - | 503 W/m² | - |
| 1778180876 | 13.89° C | 73% | 1009 hPa | 0 mm | - | 507 W/m² | - |
| 1778180575 | 13.89° C | 74% | 1008.9 hPa | 0 mm | - | 508 W/m² | - |
| 1778180273 | 14.44° C | 73% | 1008.8 hPa | 0 mm | - | 508 W/m² | - |
| 1778179969 | 14.44° C | 72% | 1009.1 hPa | 0 mm | - | 519 W/m² | - |
| 1778179667 | 14.44° C | 71% | 1009.3 hPa | 0 mm | - | 530 W/m² | - |
| 1778179365 | 14.44° C | 70% | 1009 hPa | 0 mm | - | 530 W/m² | - |
| 1778179061 | 14.44° C | 68% | 1009.1 hPa | 0 mm | - | 534 W/m² | - |
| 1778178758 | 14.44° C | 68% | 1009.1 hPa | 0 mm | - | 541 W/m² | - |
| 1778178456 | 14.44° C | 69% | 1009.4 hPa | 0 mm | - | 551 W/m² | - |
| 1778178150 | 14.44° C | 67% | 1009.5 hPa | 0 mm | - | 561 W/m² | - |
| 1778177848 | 13.89° C | 68% | 1009.5 hPa | 0 mm | - | 560 W/m² | - |
| 1778177544 | 13.33° C | 71% | 1009.5 hPa | 0 mm | - | 561 W/m² | - |
| 1778177240 | 13.89° C | 70% | 1009.7 hPa | 0 mm | - | 567 W/m² | - |
* Rain latest hour (hover to see other rain measurements)
** Current wind speed in m/s (hover to see current wind gust speed)